GW5682 Weather Reports


time (UTC)temp
C
wind
direction
speed
KPH
gust
KPH
rain 1hr
cm
rain 24hr
cm
rain mn
cm
humidity
%
barometer
mb
20260504050617 17 90 1.6 1.6 0.00 0.00 0.00 56 1017.6
20260504045641 17 180 1.6 4.8 0.00 0.00 0.00 61 1018.0
20260504044637 17 45 1.6 1.6 0.00 0.00 0.00 61 1017.9
20260504043641 17 135 1.6 1.6 0.00 0.00 0.00 60 1017.7
20260504042617 16 0.0 3.2 0.00 0.00 0.00 60 1017.8
20260504041641 17 0.0 1.6 0.00 0.00 0.00 60 1017.9
20260504040617 17 0.0 1.6 0.00 0.00 0.00 59 1017.8
20260504035641 17 0.0 1.6 0.00 0.00 0.00 58 1018.1
20260504034617 17 0.0 1.6 0.00 0.00 0.00 53 1017.9
20260504033641 17 0.0 0.0 0.00 0.00 0.00 53 1017.7
20260504032637 17 0.0 1.6 0.00 0.00 0.00 52 1017.8
20260504031641 18 0.0 1.6 0.00 0.00 0.00 51 1017.6
20260504030617 18 0.0 1.6 0.00 0.00 0.00 51 1017.7
20260504025641 18 135 1.6 3.2 0.00 0.00 0.00 51 1017.5
20260504024637 18 0.0 1.6 0.00 0.00 0.00 50 1017.8
20260504023701 18 0.0 1.6 0.00 0.00 0.00 50 1017.4
20260504022617 19 0.0 1.6 0.00 0.00 0.00 49 1017.7
20260504021641 19 0.0 1.6 0.00 0.00 0.00 47 1017.7
20260504020617 20 135 1.6 1.6 0.00 0.00 0.00 45 1017.4
20260504015641 20 90 1.6 1.6 0.00 0.00 0.00 45 1017.4
20260504014617 20 293 1.6 3.2 0.00 0.00 0.00 44 1017.4
20260504013701 20 135 1.6 1.6 0.00 0.00 0.00 43 1017.3
20260504012617 21 0 1.6 1.6 0.00 0.00 0.00 41 1017.4
20260504011641 21 90 1.6 3.2 0.00 0.00 0.00 41 1017.5
20260504010637 22 90 1.6 3.2 0.00 0.00 0.00 40 1017.1
20260504005701 22 135 1.6 3.2 0.00 0.00 0.00 36 1017.2
20260504004638 23 90 1.6 1.6 0.00 0.00 0.00 34 1017.1
20260504003641 23 135 4.8 8.0 0.00 0.00 0.00 33 1017.2
20260504002637 24 135 3.2 4.8 0.00 0.00 0.00 34 1017.2
20260504001641 25 180 3.2 4.8 0.00 0.00 0.00 32 1017.1
20260504000617 26 270 4.8 6.4 0.00 0.00 0.00 30 1017.3
20260503235701 26 90 1.6 3.2 0.00 0.00 0.00 30 1017.4
20260503234617 26 135 3.2 4.8 0.00 0.00 0.00 30 1017.3
20260503233641 27 0 3.2 4.8 0.00 0.00 0.00 25 1017.3
20260503232617 27 68 8.0 9.7 0.00 0.00 0.00 24 1017.4
20260503231641 28 225 8.0 11.3 0.00 0.00 0.00 23 1017.4
20260503230617 28 180 3.2 4.8 0.00 0.00 0.00 24 1017.5
20260503225641 28 90 1.6 4.8 0.00 0.00 0.00 23 1017.7
20260503224617 28 135 1.6 4.8 0.00 0.00 0.00 23 1017.6
20260503223641 29 270 4.8 6.4 0.00 0.00 0.00 22 1017.9
20260503222617 29 135 3.2 4.8 0.00 0.00 0.00 23 1017.9
20260503221702 29 225 4.8 6.4 0.00 0.00 0.00 22 1018.0
20260503220617 29 90 3.2 4.8 0.00 0.00 0.00 24 1018.1
20260503215641 29 180 4.8 8.0 0.00 0.00 0.00 25 1018.0
20260503214617 29 180 4.8 8.0 0.00 0.00 0.00 23 1018.2
20260503213701 30 135 4.8 8.0 0.00 0.00 0.00 25 1018.3
20260503212617 29 90 4.8 6.4 0.00 0.00 0.00 24 1018.5
20260503211642 29 0 1.6 3.2 0.00 0.00 0.00 25 1018.7
20260503210617 30 135 3.2 4.8 0.00 0.00 0.00 23 1018.7
20260503205701 29 180 8.0 11.3 0.00 0.00 0.00 26 1019.0
20260503204617 28 270 8.0 11.3 0.00 0.00 0.00 25 1019.2
20260503203641 28 270 6.4 11.3 0.00 0.00 0.00 29 1019.3
20260503202617 29 68 3.2 6.4 0.00 0.00 0.00 26 1019.6
20260503201641 29 135 3.2 4.8 0.00 0.00 0.00 29 1019.7
20260503200617 28 270 3.2 4.8 0.00 0.00 0.00 25 1020.0
20260503195641 29 225 1.6 3.2 0.00 0.00 0.00 25 1019.9
20260503194637 28 135 4.8 6.4 0.00 0.00 0.00 29 1020.2
20260503193641 27 225 11.3 14.5 0.00 0.00 0.00 23 1020.2
20260503192617 29 270 3.2 4.8 0.00 0.00 0.00 28 1020.7
20260503191641 28 180 4.8 11.3 0.00 0.00 0.00 29 1020.5
20260503190637 28 135 4.8 8.0 0.00 0.00 0.00 30 1020.7
20260503185641 28 90 3.2 4.8 0.00 0.00 0.00 30 1020.7
20260503184617 27 45 1.6 4.8 0.00 0.00 0.00 31 1021.0
20260503183641 28 90 3.2 4.8 0.00 0.00 0.00 30 1020.9
20260503182617 27 225 11.3 14.5 0.00 0.00 0.00 30 1021.2
20260503181641 26 315 6.4 11.3 0.00 0.00 0.00 30 1021.4
20260503180617 27 90 3.2 4.8 0.00 0.00 0.00 31 1021.7
20260503175641 27 225 11.3 16.1 0.00 0.00 0.00 31 1021.8
20260503174617 26 225 8.0 11.3 0.00 0.00 0.00 36 1022.0
20260503173641 26 270 3.2 4.8 0.00 0.00 0.00 37 1022.0
20260503172617 26 135 4.8 6.4 0.00 0.00 0.00 36 1022.2
20260503171641 27 180 8.0 11.3 0.00 0.00 0.00 38 1022.3
20260503170637 26 270 3.2 4.8 0.00 0.00 0.00 40 1022.4
20260503150617 22 225 6.4 8.0 0.00 0.00 0.00 40 1022.8
20260503130637 13 135 1.6 3.2 0.00 0.00 0.00 84 1022.9
20260503110657 9 0.0 0.0 0.00 0.00 0.00 85 1021.9
20260503080129 11 0.0 0.0 0.00 0.00 0.00 74 1021.7
20260503072131 11 0.0 1.6 0.00 0.00 0.00 78 1021.8
20260503071127 11 0.0 0.0 0.00 0.00 0.00 76 1021.8
20260503070131 11 0.0 1.6 0.00 0.00 0.00 74 1021.8
20260503060131 12 0.0 0.0 0.00 0.00 0.00 66 1021.9
20260503055127 13 0.0 0.0 0.00 0.00 0.00 65 1021.7
20260503054131 13 0.0 1.6 0.00 0.00 0.00 65 1021.7